Location: Manning Provincial Park
(49.0805°N, 120.7632°W)
Time: 23:46:57
(UTC-08:00)

ISS - Visible Passes

Search period start: 20 February 2019 00:00
Search period end: 02 March 2019 00:00
Orbit: 403 x 411 km, 51.6° (Epoch: 21 February)

Date Brightness Start Highest point End Pass type
(mag) Time Alt. Az. Time Alt. Az. Time Alt. Az.
22 Feb -0.7 06:07:44 10° SSE 06:09:12 12° SE 06:10:40 10° ESE visible
24 Feb -1.6 05:59:49 10° SSW 06:02:32 24° SE 06:05:16 10° E visible
25 Feb -1.1 05:09:15 10° S 05:11:17 16° SE 05:13:20 10° E visible
26 Feb -2.9 05:52:48 10° SW 05:55:57 47° SSE 05:59:07 10° ENE visible
27 Feb -2.3 05:03:20 22° S 05:04:35 30° SE 05:07:30 10° E visible
28 Feb -1.3 04:14:04 18° ESE 04:14:04 18° ESE 04:15:41 10° E visible
28 Feb -3.8 05:46:47 15° WSW 05:49:26 83° SSE 05:52:43 10° ENE visible
01 Mar -3.5 04:57:25 48° SSW 04:57:58 57° SSE 05:01:12 10° ENE visible
